Weather History for KGCC - June, 2013

Change the Weather History Date:

Thursday, June 13, 2013

  Actual Average Record
Temperature  
Mean Temperature 67 °F 61 °F  
Max Temperature 80 °F 76 °F 99 °F (1959)
Min Temperature 54 °F 47 °F 29 °F (1969)
Degree Days  
Heating Degree Days 0 5  
Month to date heating degree days 77 89  
Since 1 June heating degree days 77 89  
Since 1 July heating degree days 7390 7491  
Cooling Degree Days 2 1  
Month to date cooling degree days 6 13  
Year to date cooling degree days 14 21  
Since 1 June cooling degree days 6 13  
Growing Degree Days 16 (Base 50)    
Moisture  
Dew Point 51 °F    
Average Humidity 56    
Maximum Humidity 83    
Minimum Humidity 29    
Precipitation  
Precipitation 0.01 in 0.07 in 0.84 in (1988)
Month to date precipitation 0.36 1.12  
Year to date precipitation 7.40 6.78  
Sea Level Pressure  
Sea Level Pressure 29.83 in    
Wind  
Wind Speed 21 mph (SSE)    
Max Wind Speed 37 mph    
Max Gust Speed 44 mph    
Visibility 10 miles    
Events Rain , Thunderstorm    
T = Trace of Precipitation, MM = Missing Value Source: NWS Daily Summary

Daily Weather History Graph

Daily Weather History Graph

Search for Another Location

Airport or City:

Trip Planner

Search our weather history database for the weather conditions in past years. The results will help you decide how hot, cold, wet, or windy it might be!

Date:

Astronomy

Jun. 13, 2013 Rise Set
Actual Time 5:17 AM MDT 8:47 PM MDT
Civil Twilight 4:40 AM MDT 9:23 PM MDT
Nautical Twilight 3:52 AM MDT 10:12 PM MDT
Astronomical Twilight 2:51 AM MDT 11:14 PM MDT
Moon 10:05 AM MDT (6/13) 11:44 PM MDT (6/13)
Length of Visible Light 16h 43m
Length of Day
15h 29m
Waxing Crescent, 22% of the Moon is Illuminated
Jun 13
Waxing Crescent
Jun 16
First Quarter
Jun 23
Full
Jun 29
Last Quarter
Jul 8
New

Hourly Weather History & Observations

Time (MDT) Temp. Dew Point Humidity Pressure Visibility Wind Dir Wind Speed Gust Speed Precip Events Conditions
12:53 AM 57.0 °F 51.1 °F 81% 30.01 in 10.0 mi SSE 12.7 mph - N/A   Clear
1:53 AM 57.0 °F 51.1 °F 81% 30.00 in 10.0 mi SSE 13.8 mph 24.2 mph N/A   Clear
2:53 AM 55.0 °F 50.0 °F 83% 29.98 in 10.0 mi SE 13.8 mph - N/A   Clear
3:53 AM 54.0 °F 48.9 °F 83% 29.95 in 10.0 mi SSE 15.0 mph - N/A   Clear
4:53 AM 54.0 °F 48.9 °F 83% 29.94 in 10.0 mi SE 11.5 mph - N/A   Clear
5:53 AM 55.0 °F 48.0 °F 77% 29.93 in 10.0 mi SSE 24.2 mph 31.1 mph N/A   Clear
6:53 AM 57.0 °F 48.9 °F 74% 29.92 in 10.0 mi SSE 31.1 mph 43.7 mph N/A   Clear
7:53 AM 55.9 °F 48.9 °F 77% 29.90 in 10.0 mi SSE 26.5 mph 38.0 mph N/A   Clear
8:53 AM 59.0 °F 48.9 °F 69% 29.88 in 10.0 mi SSE 33.4 mph 41.4 mph N/A   Clear
9:53 AM 62.1 °F 50.0 °F 65% 29.89 in 10.0 mi SSE 15.0 mph 23.0 mph N/A   Clear
10:53 AM 68.0 °F 51.1 °F 55% 29.86 in 10.0 mi SSE 25.3 mph 36.8 mph N/A   Clear
11:53 AM 69.1 °F 52.0 °F 54% 29.82 in 10.0 mi SSE 24.2 mph 35.7 mph N/A   Clear
12:53 PM 75.9 °F 54.0 °F 46% 29.78 in 10.0 mi SSE 28.8 mph 39.1 mph N/A   Clear
1:53 PM 79.0 °F 54.0 °F 42% 29.75 in 10.0 mi SSE 24.2 mph 32.2 mph N/A   Clear
2:53 PM 73.0 °F 53.1 °F 49% 29.85 in 10.0 mi South 11.5 mph - N/A   Mostly Cloudy
3:05 PM 71.6 °F 53.6 °F 53% 29.95 in 10.0 mi SW 9.2 mph - 0.00 in Rain , Thunderstorm Light Rain
3:29 PM 77.0 °F 55.4 °F 47% 29.91 in 10.0 mi NNE 5.8 mph - 0.01 in   Scattered Clouds
3:53 PM 75.9 °F 57.0 °F 52% 29.79 in 10.0 mi East 3.5 mph - 0.01 in   Clear
4:40 PM 78.8 °F 44.6 °F 30% 29.87 in 10.0 mi South 16.1 mph 34.5 mph 0.00 in Rain Light Rain
4:53 PM 79.0 °F 55.9 °F 45% 29.73 in 10.0 mi SE 20.7 mph 29.9 mph 0.00 in   Partly Cloudy
5:00 PM 78.8 °F 55.4 °F 44% 29.84 in 10.0 mi SE 21.9 mph - N/A   Partly Cloudy
5:53 PM 77.0 °F 57.0 °F 50% 29.72 in 10.0 mi SE 16.1 mph 28.8 mph N/A   Clear
6:53 PM 73.9 °F 55.0 °F 52% 29.72 in 10.0 mi SE 24.2 mph 31.1 mph N/A   Clear
7:53 PM 71.1 °F 55.0 °F 57% 29.73 in 10.0 mi SE 15.0 mph - N/A   Clear
8:53 PM 73.0 °F 39.9 °F 30% 29.65 in 10.0 mi South 19.6 mph 25.3 mph N/A   Clear
9:53 PM 70.0 °F 46.0 °F 42% 29.70 in 10.0 mi South 16.1 mph 25.3 mph N/A   Clear
10:53 PM 70.0 °F 52.0 °F 53% 29.70 in 10.0 mi South 33.4 mph 43.7 mph N/A Thunderstorm Partly Cloudy
11:24 PM 66.2 °F 53.6 °F 64% 29.78 in 10.0 mi SSE 31.1 mph 38.0 mph 0.00 in   Partly Cloudy
11:53 PM 64.9 °F 54.0 °F 68% 29.66 in 10.0 mi SSE 24.2 mph 28.8 mph 0.00 in   Clear